Regional Weather Roundup
Issued by NWS Goodland, KS

Home | Current Version | Previous Version | Text Only | Print | Product List | Glossary Off
Versions: 1 2 3 4 5 6 7 8 9 10 11 12 13 14 15 16 17 18 19 20 21 22 23 24 25 26 27 28 29 30 31 32 33 34 35 36 37 38 39 40 41 42 43 44 45 46 47 48 49 50

000
ASUS43 KGLD 171959
RWRGLD

GOODLAND FORECAST AREA HOURLY WEATHER ROUNDUP
NATIONAL WEATHER SERVICE GOODLAND KS
200 PM MDT FRI APR 17 2015

...OFFICIAL OBSERVATIONS...

CITY           SKY/WX    TMP DP  RH WIND       PRES   REMARKS
GOODLAND KS    PTSUNNY   63  48  58 S17       29.98F
HILL CITY KS   CLOUDY    67  51  56 S15       29.99F
IMPERIAL NEB   CLOUDY    58  52  80 SE16      30.01S
MCCOOK NEB     PTSUNNY   65  53  65 E16       30.00S
AKRON CO       LGT RAIN  49  48  97 SE18G28   29.99S
BURLINGTON CO  MOSUNNY   59  49  69 SE22      29.98F
LIMON CO       MOSUNNY   55  36  48 S15       29.96F
$$

...UNOFFICIAL OBSERVATIONS...

CITY           SKY/WX    TMP DP  RH WIND       PRES   REMARKS
$$



USA.gov is the U.S. government's official web portal to all federal, state and local government web resources and services.